Location: Marse
(42.1502°N, 110.9866°W)
Time: 03:54:08
(UTC+00:00)

N. Korean satellite - Visible Passes

Search period start: 18 January 2022 00:00
Search period end: 28 January 2022 00:00
Orbit: 446 x 492 km, 97.3° (Epoch: 17 January)

Date Brightness Start Highest point End Pass type
(mag) Time Alt. Az. Time Alt. Az. Time Alt. Az.
18 Jan 8.8 12:52:01 10° N 13:00:48 - SSW 12:52:40 15° N visible
19 Jan 10.2 01:02:01 10° WSW 01:02:49 11° W 01:03:37 10° WNW visible
19 Jan 9.2 12:22:59 10° NNE 12:31:28 - S 12:23:35 14° NNE visible
20 Jan 9.7 11:54:27 10° NE 12:02:07 - SSE 11:54:30 10° NE visible
20 Jan 8.4 13:27:26 10° NNW 13:28:34 16° NNW 13:28:34 16° NNW visible
21 Jan 8.1 12:57:51 10° N 13:06:46 - SSW 12:59:29 24° N visible
22 Jan 8.3 12:28:41 10° NNE 12:37:22 - S 12:30:24 26° NNE visible
23 Jan 9.2 12:00:00 10° NE 12:07:56 - SSE 12:01:18 18° NE visible
23 Jan 8.0 13:33:18 10° NNW 13:35:22 19° NW 13:35:22 19° NW visible
24 Jan 7.2 13:03:33 10° N 13:12:31 - SSW 13:06:17 38° NW visible
25 Jan 7.1 12:34:16 10° NNE 12:43:02 - S 12:37:12 53° NE visible
26 Jan 8.6 12:05:25 10° NE 12:13:31 - SSE 12:08:06 28° E visible
26 Jan 8.0 13:39:04 10° NNW 13:41:34 18° WNW 13:42:10 17° W visible
27 Jan 9.8 11:37:24 10° ENE 11:43:58 - SSE 11:39:02 13° E visible
27 Jan 7.0 13:09:08 10° N 13:12:32 38° WNW 13:13:06 35° W visible
